Weather History for Fort Leonard Wood, MO

Change the Weather History Date:

Thursday, September 6, 2012

  Actual Average Record
Temperature  
Mean Temperature 80 °F -  
Max Temperature 92 °F 82 °F 96 °F (1998)
Min Temperature 68 °F 62 °F 45 °F (2011)
Cooling Degree Days 14    
Growing Degree Days 30 (Base 50)    
Moisture  
Dew Point 69 °F    
Average Humidity 82    
Maximum Humidity 100    
Minimum Humidity 52    
Precipitation  
Precipitation 0.14 in - - ()
Sea Level Pressure  
Sea Level Pressure 29.89 in    
Wind  
Wind Speed 5 mph (SSE)    
Max Wind Speed 16 mph    
Max Gust Speed 33 mph    
Visibility 10 miles    
Events Rain , Thunderstorm    
Averages and records for this station are not official NWS values.
T = Trace of Precipitation, MM = Missing Value Source: NWS Daily Summary

Daily Weather History Graph

Daily Weather History Graph

Search for Another Location

Airport:

Trip Planner

Search our weather history database for the weather conditions in past years. The results will help you decide how hot, cold, wet, or windy it might be!

Date:

Astronomy

Sep. 06, 2012 Rise Set
Actual Time 6:43 AM CDT 7:29 PM CDT
Civil Twilight 6:16 AM CDT 7:56 PM CDT
Nautical Twilight 5:45 AM CDT 8:27 PM CDT
Astronomical Twilight 5:12 AM CDT 8:59 PM CDT
Moon 10:48 PM CDT (9/6) 12:35 PM CDT (9/6)
Length of Visible Light 13h 39m
Length of Day
12h 46m
Waning Gibbous, 67% of the Moon is Illuminated
Sep 6
Waning Gibbous
Sep 8
Last Quarter
Sep 15
New
Sep 22
First Quarter
Sep 29
Full

Hourly Weather History & Observations

Time (CDT) Temp. Heat Index Dew Point Humidity Pressure Visibility Wind Dir Wind Speed Gust Speed Precip Events Conditions
12:55 AM 72.9 °F - 72.0 °F 97% 29.85 in 10.0 mi South 3.5 mph - N/A   Clear
1:55 AM 72.1 °F - 71.2 °F 97% 29.85 in 10.0 mi South 4.6 mph - N/A   Clear
2:55 AM 71.2 °F - 71.2 °F 100% 29.85 in 10.0 mi SE 3.5 mph - N/A   Clear
3:55 AM 70.2 °F - 70.2 °F 100% 29.85 in 10.0 mi Calm Calm - N/A   Clear
4:55 AM 70.3 °F - 70.3 °F 100% 29.86 in 10.0 mi Calm Calm - N/A   Clear
5:55 AM 69.6 °F - 69.6 °F 100% 29.87 in 10.0 mi Calm Calm - N/A   Clear
6:55 AM 69.4 °F - 69.4 °F 100% 29.89 in 10.0 mi Calm Calm - N/A   Clear
7:55 AM 73.8 °F - 72.1 °F 95% 29.90 in 10.0 mi Calm Calm - N/A   Clear
8:55 AM 80.4 °F 84.8 °F 73.0 °F 78% 29.91 in 10.0 mi Calm Calm - N/A   Clear
9:55 AM 84.6 °F 91.4 °F 73.4 °F 69% 29.92 in 10.0 mi Calm Calm - N/A   Clear
10:55 AM 88.0 °F 95.6 °F 72.9 °F 61% 29.90 in 10.0 mi SE 4.6 mph - N/A   Clear
11:55 AM 90.5 °F 98.6 °F 72.7 °F 56% 29.90 in 10.0 mi ESE 5.8 mph - N/A   Clear
12:55 PM 91.4 °F 98.4 °F 71.6 °F 52% 29.89 in 10.0 mi Variable 6.9 mph - N/A   Partly Cloudy
1:55 PM 88.9 °F 95.6 °F 72.0 °F 57% 29.88 in 10.0 mi Calm Calm - N/A   Partly Cloudy
2:22 PM 86.0 °F 95.1 °F 75.2 °F 70% 29.94 in 10.0 mi West 3.5 mph - N/A Thunderstorm Thunderstorm
2:37 PM 77.0 °F - 68.0 °F 74% 29.93 in 10.0 mi West 16.1 mph 33.4 mph N/A Rain , Thunderstorm Light Thunderstorms and Rain
2:45 PM 71.6 °F - 68.0 °F 88% 29.95 in 2.5 mi West 15.0 mph 33.4 mph N/A Rain , Thunderstorm Heavy Thunderstorms and Rain
2:55 PM 69.1 °F - 67.8 °F 96% 29.92 in 5.0 mi South 8.1 mph 23.0 mph 0.12 in Rain , Thunderstorm Thunderstorms and Rain
3:13 PM 68.0 °F - 68.0 °F 100% 29.92 in 10.0 mi South 8.1 mph - N/A Thunderstorm Thunderstorm
3:20 PM 68.0 °F - 68.0 °F 100% 29.91 in 10.0 mi Variable 5.8 mph - N/A Thunderstorm Scattered Clouds
3:55 PM 70.3 °F - 69.3 °F 96% 29.89 in 10.0 mi ENE 9.2 mph - 0.02 in   Mostly Cloudy
4:55 PM 74.7 °F - 69.6 °F 84% 29.88 in 10.0 mi East 12.7 mph - N/A   Clear
5:55 PM 78.1 °F - 68.5 °F 72% 29.90 in 10.0 mi SE 12.7 mph - N/A   Mostly Cloudy
6:55 PM 75.6 °F - 66.2 °F 73% 29.89 in 10.0 mi ESE 5.8 mph - N/A   Mostly Cloudy
7:55 PM 74.1 °F - 64.8 °F 72% 29.91 in 10.0 mi ESE 5.8 mph - N/A Thunderstorm Overcast
8:55 PM 72.0 °F - 63.5 °F 75% 29.89 in 10.0 mi SE 13.8 mph - N/A   Clear
9:55 PM 71.2 °F - 61.9 °F 72% 29.89 in 10.0 mi SE 13.8 mph 21.9 mph N/A Thunderstorm Clear
10:55 PM 69.4 °F - 61.9 °F 77% 29.89 in 10.0 mi SE 12.7 mph - N/A   Clear
11:55 PM 69.1 °F - 62.1 °F 78% 29.89 in 10.0 mi South 8.1 mph - N/A   Overcast